Total_Precipitation_Accumulation
0.85 0.81 0.81 0.53 0.46 0.56 0.51 0.52 0.45 0.42 0.34 0.36 0.33 0.26 0.23 0.25 0.26 0.26 0.36 0.57 0.52 0.38 0.39 0.36 0.40 0.34 0.37 0.42 0.48 0.47 0.50 0.39 0.35 0.42 0.63 0.84 0.48 0.31 0.17 0.11 0.07 0.05 0.09
1.23 1.42 1.60 1.87 1.55 0.90 0.72 0.79 0.73 0.76 0.72 0.72 0.63 0.50 0.33 0.30 0.34 0.38 0.38 0.40 0.67 0.59 0.47 0.61 0.65 0.64 0.56 0.62 0.77 0.92 1.07 0.80 0.76 0.85 1.03 0.68 0.46 0.39 0.25 0.16 0.15 0.20 0.19
1.05 1.39 1.97 1.91 1.94 1.87 1.44 1.25 1.40 1.48 1.12 0.97 0.79 0.82 0.78 0.65 0.53 0.39 0.34 0.29 0.35 0.51 0.56 0.46 0.51 0.83 1.07 1.27 1.46 1.88 2.33 2.25 2.07 1.92 1.33 0.86 0.83 0.86 0.61 0.59 0.65 0.59 0.31
0.91 1.11 1.21 1.39 1.41 1.31 1.33 1.16 0.97 1.00 0.97 0.86 0.67 0.47 0.36 0.35 0.28 0.23 0.22 0.22 0.35 0.46 0.71 0.83 0.67 0.86 1.09 1.13 1.18 1.29 1.82 2.19 2.24 2.20 2.36 2.58 2.22 1.88 1.83 1.79 1.57 1.48 1.43
0.52 0.47 0.52 0.63 0.84 0.87 0.91 0.93 0.84 0.83 0.78 0.74 0.53 0.40 0.34 0.27 0.20 0.26 0.29 0.34 0.41 0.44 0.45 0.85 1.08 1.09 1.04 0.89 0.75 0.97 1.13 1.32 1.52 1.69 1.72 1.75 1.69 1.66 1.76 1.93 2.02 1.82 1.59
0.88 0.80 0.61 0.54 0.42 0.40 0.44 0.42 0.46 0.56 0.63 0.50 0.35 0.31 0.34 0.32 0.28 0.31 0.35 0.39 0.32 0.30 0.27 0.31 0.41 0.42 0.51 0.63 0.73 0.73 0.65 0.70 0.91 0.89 0.85 0.91 0.99 0.94 1.01 1.25 1.36 1.53 1.61
1.07 1.00 0.83 0.69 0.52 0.34 0.26 0.26 0.34 0.53 0.74 0.70 0.63 0.48 0.32 0.22 0.24 0.29 0.31 0.32 0.31 0.28 0.28 0.26 0.25 0.27 0.33 0.40 0.51 0.57 0.49 0.40 0.46 0.55 0.61 0.61 0.62 0.61 0.73 0.89 1.00 1.18 1.41
1.29 1.05 0.89 0.88 0.75 0.68 0.60 0.60 0.53 0.56 0.60 0.76 0.75 0.61 0.51 0.43 0.36 0.20 0.16 0.19 0.23 0.27 0.31 0.33 0.33 0.26 0.23 0.22 0.28 0.43 0.39 0.25 0.25 0.48 0.58 0.50 0.53 0.61 0.75 0.92 0.79 0.61 0.59
1.46 1.65 1.97 1.65 1.14 1.16 1.26 1.30 1.36 1.34 1.14 0.91 0.79 0.85 0.60 0.42 0.32 0.36 0.25 0.21 0.21 0.21 0.23 0.30 0.31 0.27 0.22 0.22 0.21 0.25 0.41 0.42 0.36 0.42 0.57 0.66 0.82 0.82 0.67 0.55 0.45 0.50 0.52
1.72 1.88 2.22 2.82 3.28 2.84 2.01 1.71 1.57 1.43 1.53 1.39 1.34 1.07 0.89 0.63 0.46 0.33 0.25 0.29 0.35 0.38 0.34 0.36 0.43 0.45 0.45 0.45 0.50 0.56 0.51 0.40 0.30 0.38 0.65 0.81 1.09 1.08 0.82 0.66 0.64 0.64 0.60
2.09 1.89 1.93 2.04 2.04 2.23 2.70 2.47 2.00 1.89 1.78 1.54 1.28 1.05 0.94 0.89 0.89 0.75 0.43 0.26 0.29 0.35 0.41 0.42 0.41 0.53 0.72 0.85 0.85 0.78 0.94 0.88 0.54 0.62 0.83 1.08 1.12 1.28 1.51 1.48 1.17 0.95 0.85
1.85 1.74 1.58 1.49 1.50 1.53 1.63 1.99 2.01 1.74 1.66 1.71 1.66 1.55 1.27 1.16 0.97 1.08 0.99 0.66 0.58 0.43 0.37 0.37 0.40 0.42 0.57 0.81 0.99 1.05 0.94 0.88 0.80 0.85 0.95 1.16 1.26 1.32 1.47 1.58 1.57 1.41 1.32
1.76 1.68 1.56 1.60 1.51 1.52 1.56 1.64 1.77 1.70 1.53 1.40 1.35 1.41 1.59 1.58 1.50 1.50 1.46 1.09 0.79 0.53 0.46 0.31 0.24 0.31 0.39 0.39 0.50 0.88 0.98 0.98 1.04 1.14 1.10 1.17 1.33 1.33 1.38 1.71 2.40 2.71 2.79
1.56 1.90 1.82 1.79 1.87 1.85 1.83 1.85 1.87 1.88 1.79 1.72 1.73 1.67 1.61 1.63 1.81 1.94 1.98 2.00 1.85 1.18 0.74 0.54 0.43 0.54 0.63 0.71 0.91 1.10 0.83 0.99 0.93 0.97 1.16 1.35 1.44 1.41 1.44 1.56 1.68 1.73 2.08
1.22 1.34 1.47 1.39 1.41 1.44 1.41 1.49 1.50 1.45 1.59 1.66 1.56 1.48 1.49 1.36 1.41 1.57 1.84 2.20 2.73 2.47 1.53 0.97 0.94 0.97 1.07 1.19 1.41 1.29 1.16 1.49 1.43 1.32 1.29 1.25 1.04 1.04 1.01 1.06 1.19 1.13 1.37
0.61 0.72 0.85 0.91 0.98 1.06 1.21 1.31 1.32 1.39 1.52 1.58 1.62 1.70 1.67 1.63 1.61 1.46 1.44 1.65 1.92 2.28 2.06 1.18 1.07 1.11 1.34 1.62 2.09 1.99 1.88 2.18 1.74 1.46 1.30 1.04 0.87 0.71 0.62 0.62 0.65 0.67 0.77
0.16 0.18 0.18 0.27 0.35 0.40 0.54 0.76 0.91 1.10 1.29 1.51 1.83 2.11 2.25 2.33 2.46 2.43 2.52 2.69 2.83 2.98 2.90 1.86 1.48 1.40 1.41 1.45 1.45 1.33 1.37 1.30 1.36 1.58 1.33 1.19 0.96 0.78 0.67 0.59 0.54 0.50 0.50
0.20 0.19 0.18 0.19 0.24 0.27 0.27 0.27 0.32 0.39 0.48 0.59 0.81 1.06 1.17 1.32 1.54 1.63 1.81 1.99 2.33 2.79 3.21 2.52 1.87 1.73 1.60 1.47 1.26 0.99 0.91 0.94 0.97 1.33 1.29 1.22 1.11 0.97 0.93 0.93 0.82 0.69 0.58
0.37 0.56 0.38 0.31 0.26 0.23 0.19 0.21 0.26 0.36 0.47 0.58 0.65 0.72 0.84 0.93 0.97 1.00 1.03 1.11 1.20 1.36 1.63 1.59 1.24 1.08 1.09 1.22 1.32 1.22 1.08 1.00 0.93 1.22 1.10 1.07 1.10 1.06 0.97 0.90 0.93 0.98 0.97
0.40 0.56 0.93 0.51 0.42 0.39 0.34 0.26 0.27 0.27 0.34 0.49 0.49 0.54 0.54 0.70 0.89 1.04 1.36 1.56 1.44 1.35 1.20 0.99 0.83 0.72 0.64 0.63 0.69 0.72 0.68 0.59 0.51 0.51 0.59 0.58 0.66 0.70 0.78 0.81 0.73 0.70 0.78
0.48 0.43 0.51 0.60 0.53 0.46 0.61 0.48 0.37 0.40 0.35 0.56 0.87 0.85 0.95 0.97 1.14 1.13 0.97 0.87 0.96 0.94 0.98 1.05 0.86 0.57 0.46 0.38 0.35 0.36 0.40 0.46 0.50 0.53 0.43 0.35 0.28 0.24 0.28 0.43 0.59 0.72 0.74
0.68 0.49 0.52 0.45 0.42 0.50 0.92 0.89 0.67 0.64 0.69 0.60 0.94 1.03 1.03 1.27 1.00 1.04 0.95 0.84 0.77 0.74 0.61 0.46 0.40 0.35 0.32 0.27 0.25 0.30 0.40 0.54 0.55 0.37 0.38 0.33 0.27 0.21 0.16 0.16 0.28 0.41 0.55
0.62 0.66 0.60 0.68 0.57 0.60 0.87 0.98 0.83 0.52 0.62 0.67 0.51 0.55 0.43 0.45 0.55 0.52 0.65 0.63 0.59 0.49 0.41 0.38 0.32 0.23 0.21 0.20 0.31 0.37 0.36 0.42 0.31 0.16 0.28 0.37 0.31 0.31 0.22 0.24 0.25 0.23 0.34
0.55 0.60 0.61 0.81 0.91 1.06 0.97 0.99 0.81 0.41 0.37 0.48 0.29 0.21 0.16 0.14 0.20 0.23 0.31 0.38 0.40 0.35 0.33 0.31 0.31 0.31 0.31 0.32 0.39 0.53 0.43 0.36 0.19 0.10 0.17 0.29 0.17 0.23 0.20 0.22 0.32 0.30 0.34
0.85 0.93 0.83 0.83 0.89 1.10 0.95 1.03 0.62 0.43 0.25 0.14 0.08 0.04 0.04 0.02 0.06 0.15 0.15 0.20 0.23 0.21 0.32 0.38 0.43 0.52 0.59 0.56 0.44 0.45 0.52 0.54 0.40 0.14 0.09 0.16 0.11 0.15 0.16 0.17 0.20 0.29 0.32
0.77 0.82 0.79 0.74 0.71 0.65 0.58 0.64 0.54 0.27 0.09 0.04 0.03 0.03 0.04 0.03 0.05 0.08 0.10 0.07 0.10 0.03 0.06 0.09 0.11 0.19 0.28 0.33 0.39 0.31 0.28 0.57 0.54 0.62 0.29 0.47 0.27 0.24 0.53 0.16 0.15 0.22 0.25